STARLINK-1091 (44940 NORAD) Tracking and Keplerian Element Data

This shows tracking and keplerian element data for the satellite.

Feedback or suggestion? Click here.




ElementValue
Catalog44940
NameSTARLINK-1091
Epoch Orbit721
Epoch Day52.78491921
Epoch Year2020
RAAN169.5375
Inclination52.997
Eccentricity0.0002344
Argument of Perigee41.6012
Mean Anonmoly318.5184
Mean Motion15.73195242
Decay Rate-7.869E-05
L11 44940U 20001AC 20052.78491921 -.00007869 00000-0 -51678-4 0 9997
L22 44940 52.9970 169.5375 0002344 41.6012 318.5184 15.73195242 7217

Live tracking and technical data element details for STARLINK-1091 (NORAD 44940). STARLINK-1091 can be tracked NOW for your location showing map with azimuth and elevation plus other details from your city location.

Track the satellite on the map from your city or location and see movement details for azimuth, elevation, latitude, longitude, range, height, and movement on the map or in text.







IsCatalogInMostPopularTable: catalog: 44940, numindb: 12
Update: records affected: 1



GetName: 44940 STARLINK-1091

Hit Count: updated at: Wed, 26 Feb 2020 15:29:56 GMT